User: anonymous   Login
Location: Rometta
(44.2000°N, 10.0500°E)
Time: 11:53:03
(UTC+00:00)
Language:

Cosmos 1626 Rocket - Orbit

View from above orbital plane
View from above orbital plane
View from above satellite
View from above satellite

Ground track
Ground track

The orbit data is extracted from the following two-line orbital elements,

1 15495U 85009B   21113.04979543  .00000106  00000-0  98808-5 0  9990
2 15495  82.5214 310.4246 0020493  15.9604 344.2252 14.83904332958440
Epoch (UTC): 23 April 2021 01:11:42
Eccentricity: 0.0020493
inclination: 82.5214°
perigee height: 602 km
apogee height: 631 km
right ascension of ascending node: 310.4246°
argument of perigee: 15.9604°
revolutions per day: 14.83904332
mean anomaly at epoch: 344.2252°
orbit number at epoch: 95844

The dashed part of the orbit path shows where the satellite is in the earth's shadow,  

DLR